Beatrice, NE

2:38 PM CST on February 20, 2017 (GMT -0600)
Beatrice Municipal

Weather History for KBIE - November, 2014

Change the Weather History Date:

Friday, November 28, 2014

  Actual Average Record
Temperature  
Mean Temperature 43 °F -  
Max Temperature 59 °F 41 °F 64 °F (1998)
Min Temperature 27 °F 20 °F -5 °F (1976)
Degree Days  
Heating Degree Days 22    
Moisture  
Dew Point 29 °F    
Average Humidity 58    
Maximum Humidity 81    
Minimum Humidity 35    
Precipitation  
Precipitation 0.00 in - - ()
Sea Level Pressure  
Sea Level Pressure 29.81 in    
Wind  
Wind Speed 10 mph (South)    
Max Wind Speed 14 mph    
Max Gust Speed 20 mph    
Visibility 10 miles    
Events      
Averages and records for this station are not official NWS values.
T = Trace of Precipitation, MM = Missing Value Source: NWS Daily Summary

Daily Weather History Graph

Daily Weather History Graph

Search for Another Location

Airport or City:

Trip Planner

Search our weather history database for the weather conditions in past years. The results will help you decide how hot, cold, wet, or windy it might be!

Date:

Astronomy

Nov. 28, 2014 Rise Set
Actual Time 7:27 AM CST 5:02 PM CST
Civil Twilight 6:57 AM CST 5:32 PM CST
Nautical Twilight 6:23 AM CST 6:05 PM CST
Astronomical Twilight 5:51 AM CST 6:38 PM CST
Moon 12:21 PM CST (11/28) 11:52 PM CST (11/28)
Length of Visible Light 10h 34m
Length of Day
9h 34m
Waxing Crescent, 42% of the Moon is Illuminated
Nov 28
Waxing Crescent
Nov 29
First Quarter
Dec 6
Full
Dec 14
Last Quarter
Dec 21
New

Hourly Weather History & Observations

Time (CST) Temp. Windchill Dew Point Humidity Pressure Visibility Wind Dir Wind Speed Gust Speed Precip Events Conditions
12:15 AM 30.9 °F 20.7 °F 19.6 °F 63% 30.05 in 10.0 mi SSE 13.8 mph 19.6 mph N/A   Clear
12:35 AM 31.1 °F 21.4 °F 19.9 °F 63% 30.04 in 10.0 mi South 12.7 mph - N/A   Clear
12:55 AM 31.1 °F 20.9 °F 20.3 °F 64% 30.03 in 10.0 mi South 13.8 mph - N/A   Clear
1:15 AM 31.5 °F 21.8 °F 20.7 °F 64% 30.03 in 10.0 mi South 12.7 mph - N/A   Clear
1:35 AM 31.8 °F 22.8 °F 20.8 °F 64% 30.02 in 10.0 mi South 11.5 mph - N/A   Clear
1:55 AM 32.0 °F 23.0 °F 21.0 °F 64% 30.01 in 10.0 mi South 11.5 mph 17.3 mph N/A   Clear
2:15 AM 32.0 °F 23.0 °F 21.2 °F 64% 30.00 in 10.0 mi South 11.5 mph - N/A   Clear
2:35 AM 31.6 °F 22.6 °F 21.2 °F 65% 29.99 in 10.0 mi South 11.5 mph - N/A   Clear
2:55 AM 32.0 °F 23.6 °F 21.7 °F 66% 29.99 in 10.0 mi South 10.4 mph - N/A   Clear
3:15 AM 32.0 °F 24.2 °F 21.7 °F 66% 29.98 in 10.0 mi South 9.2 mph - N/A   Clear
3:35 AM 31.6 °F 23.7 °F 22.1 °F 68% 29.97 in 10.0 mi South 9.2 mph - N/A   Clear
3:55 AM 31.5 °F 22.9 °F 22.1 °F 68% 29.96 in 10.0 mi South 10.4 mph - N/A   Clear
4:15 AM 30.6 °F 23.1 °F 22.1 °F 71% 29.95 in 10.0 mi South 8.1 mph - N/A   Clear
4:35 AM 30.2 °F 22.6 °F 23.0 °F 75% 29.95 in 10.0 mi South 8.1 mph - N/A   Clear
4:55 AM 29.8 °F 22.2 °F 22.3 °F 73% 29.93 in 10.0 mi South 8.1 mph - N/A   Clear
5:15 AM 30.2 °F 23.4 °F 22.6 °F 73% 29.92 in 10.0 mi South 6.9 mph - N/A   Clear
5:35 AM 29.3 °F 22.3 °F 22.5 °F 76% 29.92 in 10.0 mi South 6.9 mph - N/A   Clear
5:55 AM 28.4 °F 22.2 °F 23.0 °F 80% 29.94 in 10.0 mi SSW 5.8 mph - N/A   Clear
6:15 AM 27.0 °F 19.5 °F 21.9 °F 81% 29.92 in 10.0 mi South 6.9 mph - N/A   Clear
6:35 AM 29.3 °F 23.2 °F 23.2 °F 78% 29.91 in 10.0 mi South 5.8 mph - N/A   Clear
6:55 AM 28.9 °F 23.9 °F 22.8 °F 78% 29.91 in 10.0 mi South 4.6 mph - N/A   Clear
7:15 AM 27.9 °F 22.6 °F 22.8 °F 81% 29.90 in 10.0 mi South 4.6 mph - N/A   Clear
7:35 AM 28.2 °F 23.1 °F 23.0 °F 81% 29.89 in 10.0 mi South 4.6 mph - N/A   Clear
7:55 AM 29.1 °F 23.0 °F 23.9 °F 81% 29.90 in 10.0 mi South 5.8 mph - N/A   Clear
8:15 AM 30.9 °F 23.5 °F 24.6 °F 77% 29.89 in 10.0 mi South 8.1 mph - N/A   Clear
8:35 AM 32.0 °F 24.8 °F 24.8 °F 75% 29.88 in 10.0 mi SSW 8.1 mph - N/A   Clear
8:55 AM 33.6 °F 26.8 °F 26.4 °F 75% 29.88 in 10.0 mi SSW 8.1 mph - N/A   Clear
9:15 AM 35.8 °F 28.8 °F 27.1 °F 71% 29.88 in 10.0 mi SW 9.2 mph - N/A   Clear
9:35 AM 38.1 °F 31.7 °F 28.0 °F 67% 29.87 in 10.0 mi SSW 9.2 mph - N/A   Clear
9:55 AM 41.0 °F 35.8 °F 28.4 °F 61% 29.85 in 10.0 mi SSW 8.1 mph - N/A   Clear
10:15 AM 42.6 °F 37.2 °F 28.9 °F 58% 29.85 in 10.0 mi SW 9.2 mph - N/A   Clear
10:35 AM 44.2 °F 39.2 °F 29.5 °F 56% 29.84 in 10.0 mi South 9.2 mph - N/A   Clear
10:55 AM 46.4 °F 41.5 °F 30.2 °F 53% 29.84 in 10.0 mi SW 10.4 mph - N/A   Clear
11:15 AM 48.2 °F - 30.2 °F 50% 29.83 in 10.0 mi SW 11.5 mph - N/A   Clear
11:35 AM 48.2 °F - 30.2 °F 50% 29.82 in 10.0 mi SW 9.2 mph - N/A   Clear
11:55 AM 51.3 °F - 30.9 °F 46% 29.79 in 10.0 mi SSW 10.4 mph - N/A   Clear
12:15 PM 51.8 °F - 31.1 °F 45% 29.78 in 10.0 mi SSW 12.7 mph - N/A   Clear
12:35 PM 53.6 °F - 31.8 °F 44% 29.77 in 10.0 mi South 12.7 mph - N/A   Clear
12:55 PM 53.1 °F - 31.5 °F 44% 29.77 in 10.0 mi SSW 10.4 mph - N/A   Clear
1:15 PM 54.7 °F - 31.6 °F 42% 29.76 in 10.0 mi SSW 11.5 mph - N/A   Clear
1:35 PM 56.5 °F - 32.0 °F 39% 29.74 in 10.0 mi SSW 12.7 mph - N/A   Clear
1:55 PM 57.7 °F - 32.2 °F 38% 29.73 in 10.0 mi SSW 11.5 mph - N/A   Clear
2:15 PM 58.8 °F - 32.0 °F 36% 29.72 in 10.0 mi South 12.7 mph - N/A   Clear
2:35 PM 59.9 °F - 32.0 °F 35% 29.72 in 10.0 mi SSW 12.7 mph - N/A   Clear
2:55 PM 59.2 °F - 32.0 °F 36% 29.72 in 10.0 mi SSW 10.4 mph - N/A   Clear
3:15 PM 59.7 °F - 32.5 °F 36% 29.71 in 10.0 mi South 11.5 mph - N/A   Clear
3:35 PM 59.2 °F - 32.2 °F 36% 29.71 in 10.0 mi South 11.5 mph - N/A   Clear
3:55 PM 59.0 °F - 32.4 °F 37% 29.70 in 10.0 mi South 11.5 mph - N/A   Clear
4:15 PM 57.7 °F - 32.2 °F 38% 29.70 in 10.0 mi SSW 10.4 mph - N/A   Clear
4:35 PM 55.2 °F - 32.4 °F 42% 29.70 in 10.0 mi South 9.2 mph - N/A   Clear
4:55 PM 54.3 °F - 32.4 °F 43% 29.70 in 10.0 mi South 11.5 mph - N/A   Clear
5:15 PM 54.3 °F - 32.4 °F 43% 29.70 in 10.0 mi South 11.5 mph - N/A   Clear
5:35 PM 54.1 °F - 32.4 °F 44% 29.70 in 10.0 mi SSW 10.4 mph - N/A   Clear
5:55 PM 53.1 °F - 32.5 °F 46% 29.69 in 10.0 mi South 10.4 mph - N/A   Clear
6:15 PM 53.4 °F - 32.7 °F 45% 29.68 in 10.0 mi South 10.4 mph - N/A   Clear
6:35 PM 53.2 °F - 32.9 °F 46% 29.68 in 10.0 mi South 10.4 mph - N/A   Clear
6:55 PM 53.1 °F - 33.1 °F 47% 29.68 in 10.0 mi South 10.4 mph - N/A   Clear
7:15 PM 52.0 °F - 33.3 °F 49% 29.67 in 10.0 mi SSW 10.4 mph - N/A   Clear
7:30 PM 51.8 °F - 33.8 °F 50% 29.67 in 10.0 mi South 10.4 mph - N/A   Clear
7:55 PM 51.3 °F - 34.2 °F 52% 29.66 in 10.0 mi SSW 9.2 mph - N/A   Clear
8:15 PM 52.0 °F - 34.7 °F 52% 29.66 in 10.0 mi SSW 12.7 mph - N/A   Clear
8:35 PM 51.8 °F - 34.7 °F 52% 29.66 in 10.0 mi SSW 12.7 mph 18.4 mph N/A   Clear
8:55 PM 51.1 °F - 34.7 °F 54% 29.66 in 10.0 mi SSW 9.2 mph - N/A   Clear
9:15 PM 50.0 °F - 34.7 °F 56% 29.66 in 10.0 mi SSW 9.2 mph - N/A   Clear
9:35 PM 50.0 °F - 34.9 °F 56% 29.66 in 10.0 mi SSW 10.4 mph - N/A   Clear
9:55 PM 49.3 °F - 34.9 °F 58% 29.65 in 10.0 mi SSW 9.2 mph - N/A   Clear
10:15 PM 48.6 °F - 34.9 °F 59% 29.65 in 10.0 mi SSW 11.5 mph - N/A   Clear
10:35 PM 48.4 °F - 34.9 °F 60% 29.65 in 10.0 mi SSW 12.7 mph - N/A   Clear
10:55 PM 48.2 °F - 34.9 °F 60% 29.65 in 10.0 mi SSW 9.2 mph - N/A   Clear
11:15 PM 47.1 °F - 34.7 °F 62% 29.65 in 10.0 mi South 5.8 mph - N/A   Clear
11:35 PM 46.8 °F - 34.7 °F 63% 29.64 in 10.0 mi SSW 9.2 mph - N/A   Clear
11:55 PM 46.6 °F - 34.5 °F 63% 29.65 in 10.0 mi SSW 8.1 mph - N/A   Clear